Regional Weather Roundup
Issued by NWS

Home | Current Version | Previous Version | Text Only | Print | Product List | Glossary On
Versions: 1 2 3 4 5 6 7 8 9 10 11 12 13 14 15 16 17 18 19 20 21 22 23 24 25 26 27 28 29 30 31 32 33 34 35 36 37 38 39 40 41 42 43 44 45 46 47 48 49 50
000
ASUS46 KLOX 030313
RWRCA

SOUTHERN CALIFORNIA WEATHER ROUNDUP
NATIONAL WEATHER SERVICE OXNARD CALIFORNIA
800 PM PDT THU JUL 02 2015

NOTE: "FAIR" INDICATES FEW OR NO CLOUDS BELOW 12,000 FEET WITH NO
SIGNIFICANT WEATHER AND/OR OBSTRUCTIONS TO VISIBILITY.

  -  STATIONS PRECEEDED BY AN ASTERISK (*) ARE NOT NWS OR FAA
     STATIONS AND ARE NOT SUBJECT TO NWS AND FAA QUALITY CONTROL.

CAZ041-042-087-030400-
LA AND ORANGE COUNTY COASTAL AREAS


CITY           SKY/WX    TMP DP  RH WIND       PRES   REMARKS
L.A. DOWNTOWN  CLEAR     70  62  76 W5        29.91S
L.A. AIRPORT   PTCLDY    66  63  90 W13       29.92S
LONG BEACH     CLEAR     73  62  68 NW12      29.91R

CITY           SKY/WX    TMP DP  RH WIND       PRES   REMARKS
AVALON           N/A     68 N/A N/A N1          N/A
FULLERTON      CLEAR     77  59  53 VRB6      29.90R
*GETTY CENTER    N/A     64  61  88 SW2         N/A
HAWTHORNE      CLEAR     69  62  78 W9        29.92S
*LOS ALAMITOS  CLEAR     74  62  65 NW8       29.91R
*REDONDO BEACH   N/A     68  63  82 W3        29.93R
SANTA ANA      PTCLDY    71  63  75 SW6       29.91S
STA MONICA APT PTCLDY    67  61  81 SW9       29.92S
TORRANCE       PTCLDY    68  64  88 W10       29.93S
*UCLA            N/A     66  61  82 SW3       29.90R

$$

CAZ547-548-048-030400-
LA COUNTY VALLEYS AND INLAND EMPIRE


CITY           SKY/WX    TMP DP  RH WIND       PRES   REMARKS
BURBANK        CLEAR     79  58  48 SE9       29.91S
VAN NUYS       CLEAR     82  55  39 E6        29.91R

CITY           SKY/WX    TMP DP  RH WIND       PRES   REMARKS
CORONA AIRPORT CLOUDY    80  59  48 W7        29.90S
*CHATSWORTH      N/A     79  55  42 W8        29.88S
CHINO          CLEAR     80  60  50 W12       29.92R
MARCH AFB      CLEAR     81  53  37 NW10      29.94R
*NORTHRIDGE      N/A     82  43  24 W3          N/A
ONTARIO        CLEAR     82  57  42 W9        29.91R
*PASADENA        N/A     75  61  60 CALM        N/A
POMONA         CLEAR     77  55  47 W14       29.95S
RIVERSIDE      CLEAR     82  56  40 W9        29.91R
SAN BERNARDINO CLEAR     84  50  30 SW14      29.92R
*WHITEMAN AP   CLEAR     81  55  41 SE7       29.95R
*WOODLAND HILL   N/A     82  43  24 W3          N/A

$$

CAZ054-055-030400-
LA AND SAN BERNARDINO COUNTY MOUNTAINS


CITY           SKY/WX    TMP DP  RH WIND       PRES   REMARKS
*BIG BEAR AIRP CLEAR     63  48  59 W6        30.27R
SANDBERG       CLEAR     77  49  37 VRB6      30.13R

$$

CAZ028-029-059-060-099-030400-
ANTELOPE VALLEY AND SURROUNDING AREAS


CITY           SKY/WX    TMP DP  RH WIND       PRES   REMARKS
LANCASTER      CLEAR     85  50  29 SW16G26   29.95R
PALMDALE       CLEAR     84  49  29 W16       29.96R

CITY           SKY/WX    TMP DP  RH WIND       PRES   REMARKS
29 PALMS       CLEAR     94  53  25 SW16      29.91R HX  91
BARSTOW/DAGGET PTCLDY    95  50  21 W22       29.86R HX  92
BISHOP         PTCLDY    82  62  50 SE9       29.98S
CHINA LAKE     PTCLDY    94  51  23 W14       29.85R HX  91
EDWARDS AFB    PTCLDY    87  50  28 SW17G28   29.91R
MOJAVE         FAIR      88  48  25 W16G29    29.95S
NEEDLES        CLEAR    105  52  17 SW12      29.74R HX 103
VICTORVILLE    CLEAR     86  50  28 CALM      29.97R

$$

CAZ039-040-030400-
VENTURA AND SANTA BARBARA COUNTY COAST


CITY           SKY/WX    TMP DP  RH WIND       PRES   REMARKS
CAMARILLO      CLEAR     66  59  78 W7        29.93R
NWS OXNARD       N/A     65  59  82 CALM      29.93R
OXNARD AIRPORT CLOUDY    65  60  84 W15       29.93R
*POINT MUGU    MOCLDY    67  60  78 NW7       29.93S
SBA APT/GOLETA PTCLDY    64  60  87 SW8       29.91S
*SANTA BARBARA   N/A     68  59  73 CALM      29.99S
*VENTURA         N/A     67  59  75 SW6       29.53S

$$

CAZ044-045-030400-
VENTURA COUNTY VALLEYS


CITY           SKY/WX    TMP DP  RH WIND       PRES   REMARKS
*SIMI VALLEY     N/A     73  58  59 NW1       29.87S
*OJAI            N/A     79  58  48 CALM      29.84R
*FILLMORE        N/A     74  58  58 W5        29.83R

$$

CAZ053-030400-
VENTURA COUNTY MOUNTAINS


CITY           SKY/WX    TMP DP  RH WIND       PRES   REMARKS

$$

CAZ034-035-036-030400-
CENTRAL COAST AND SANTA YNEZ VALLEY


CITY           SKY/WX    TMP DP  RH WIND       PRES   REMARKS
SAN LUIS OBISP CLEAR     64  57  78 NW10      29.96S
SANTA MARIA    PTCLDY    62  59  90 NW7       29.97S

CITY           SKY/WX    TMP DP  RH WIND       PRES   REMARKS
*CAL POLY SLO    N/A     66  59  77 S3          N/A
*LOMPOC        CLEAR     63  55  77 W12       29.97S
*PISMO BEACH     N/A     60  59  95 CALM      29.96F
*SANTA YNEZ    FAIR      72  55  56 W9        29.95R

$$

CAZ037-038-051-030400-
SAN LUIS OBISPO COUNTY INTERIOR AND CUYAMA VALLEY


CITY           SKY/WX    TMP DP  RH WIND       PRES   REMARKS
*CUYAMA          N/A     81  41  24 W8        29.83R
PASO ROBLES    CLEAR     74  48  39 S16       29.92R

$$

CAZ032-033-061-030400-
SOUTHERN DESERTS


CITY           SKY/WX    TMP DP  RH WIND       PRES   REMARKS
BLYTHE         CLEAR    103  59  23 SE7       29.70R HX 103
IMPERIAL       CLEAR     98  58  26 W17G26    29.69R HX  97
PALM SPRINGS   CLEAR     99  56  23 NW20G25   29.76R HX  97
THERMAL        CLEAR    102  57  22 NW15      29.68R HX 101

$$

ELSEWHERE ACROSS THE WESTERN UNITED STATES AND MEXICO


CITY           SKY/WX    TMP DP  RH WIND       PRES   REMARKS
DENVER, CO     CLOUDY    62  58  86 E7        30.20F
GRAND CANYON,  CLOUDY    73  51  46 NW3       30.23R
HONOLULU, HI   MOSUNNY   86  70  58 SW9       29.86F HX  90
KAHULUI, MAUI  MOSUNNY   90  68  48 NW7       29.85F HX  93
LAKE TAHOE, CA CLOUDY    70  52  52 S7        30.25F
LAS VEGAS, NV  PTCLDY   102  52  18 SE8       29.76R HX  99
MAMMOTH LAKES, FAIR      68  48  49 W8        30.26S
MEXICO CITY, M LGT RAIN  59  52  77 NW7       30.32R
PHOENIX, AZ    MOCLDY   102  54  20 SW10      29.73R HX 100
PORTLAND, OR   PTCLDY    91  58  32 N8        29.87S HX  90
RENO, NV       CLOUDY    81  54  39 NW18      30.07R
SALT LAKE CITY MOCLDY    89  53  29 W7        29.96S
SAN DIEGO, CA  PTCLDY    71  62  73 NW7       29.93S
SAN FRANCISCO, CLOUDY    64  56  75 NW13      29.94R
SAN JOSE, CA   MOCLDY    68  58  70 NW13      29.93R
SEATTLE, WA    PTCLDY    88  54  31 N10       29.95S
TIJUANA, MEX   CLEAR     70  61  73 NW12      29.95R

$$

STATION/POSITION TIME  TEMP    WIND        PRES    VSBY  WAVE
                       AIR SEA DIR/SP/G                  HT/PER
                 (UTC) (F)     (DEG/KT/KT) (MB)    (MI)  (FT/S)
POINT ARGUELLO B NOT AVBL
WEST SANTA BARBA 0250   60 62  310/ 17/ 21 1013.0R         4/ 8
POINT CONCEPTION NOT AVBL
EAST SANTA BARBA 0300   61 65  270/ 14/ 17 1013.5S
SANTA MONICA BAY 0250   66 69  290/  8/ 10 1013.2R         3/13



USA.gov is the U.S. government's official web portal to all federal, state and local government web resources and services.